CAPE
3 2 1 2 1 2 1 1 0 0 0 0 0 0 0 0 0 0 0 0 0 0 0 0 0 0 0 0 0 0 0 0 0 0 0 0 0 0 0 0 0 0 0 0 0 0 0
3 2 2 2 1 2 3 1 0 0 0 0 0 0 0 0 0 0 0 0 0 0 0 0 0 0 0 0 0 0 0 0 0 0 0 0 0 0 0 0 0 0 0 0 0 0 0
0 2 3 2 3 2 0 0 0 0 0 0 0 0 0 0 0 0 0 0 0 0 0 0 0 0 0 0 0 0 0 0 0 0 0 0 0 0 0 0 0 0 0 0 0 0 0
2 2 2 1 1 0 0 0 0 0 0 0 0 0 0 0 0 0 0 0 0 0 0 0 0 0 0 0 0 0 0 0 0 0 0 0 0 0 0 0 0 0 0 0 0 0 0
0 0 0 0 0 0 0 0 0 0 0 0 0 0 0 0 0 0 0 0 0 0 0 0 0 0 0 0 0 0 0 0 0 0 0 0 0 0 0 0 0 0 0 0 0 0 0
0 0 0 0 0 0 0 0 0 0 0 0 0 0 0 0 0 0 0 0 0 0 0 0 0 0 0 0 0 0 0 0 0 0 0 0 0 0 0 0 0 0 0 0 0 0 0
0 0 0 0 0 0 0 0 0 0 0 0 0 0 0 0 0 0 0 0 0 0 0 0 0 0 0 0 0 0 0 0 0 0 0 0 0 0 0 0 0 0 0 0 0 0 0
0 0 0 0 0 0 0 0 0 0 0 0 0 0 0 0 0 0 0 0 0 0 0 0 0 0 0 0 0 0 0 0 0 0 0 0 0 0 0 0 0 0 0 0 0 0 0
0 0 0 0 0 0 0 0 0 0 0 0 0 0 0 0 0 0 0 0 0 0 0 0 0 0 0 0 0 0 0 0 0 0 0 0 0 0 0 0 0 0 0 0 0 0 0
0 0 0 0 0 0 0 0 0 0 0 0 0 0 0 0 0 0 0 0 0 0 0 0 0 0 0 0 0 0 0 0 0 0 0 0 0 0 0 0 0 0 0 1 3 7 3
0 0 0 0 0 0 0 0 0 0 0 0 0 0 0 0 0 0 0 0 0 0 0 0 0 0 0 0 0 0 0 0 0 0 0 0 0 0 0 0 0 0 0 0 0 0 3
0 0 0 0 0 0 0 0 0 0 0 0 0 0 0 0 0 0 0 0 0 0 0 0 0 0 0 0 0 0 0 0 0 0 0 0 0 0 0 0 0 0 0 0 0 0 0
0 0 0 0 0 0 0 0 0 0 0 0 0 0 0 0 0 0 0 0 0 0 0 0 0 0 0 0 0 0 0 0 0 0 0 0 0 0 0 0 0 0 0 0 0 0 0
0 0 0 0 0 0 0 0 0 0 0 0 0 0 0 0 0 0 0 0 0 0 0 0 0 0 0 0 0 0 0 0 0 0 0 0 0 0 0 0 0 0 0 0 0 0 0
0 0 0 0 0 0 0 0 0 0 0 0 0 0 0 0 0 0 0 0 0 0 0 0 0 0 0 0 0 0 0 0 0 0 0 0 0 0 0 0 0 0 0 0 0 0 0
0 0 0 0 0 0 0 0 0 0 0 0 0 0 0 0 0 0 0 0 0 0 0 0 0 0 0 0 0 0 0 0 0 0 0 0 0 0 0 0 0 0 0 0 0 0 0
0 0 0 0 0 0 0 0 0 0 0 0 0 0 0 0 0 0 0 0 0 0 0 0 0 0 0 0 0 0 0 0 0 0 0 0 0 0 0 0 0 0 0 0 0 0 0
3 0 0 0 0 0 0 0 0 0 0 0 0 0 0 0 0 0 0 0 0 0 0 0 0 0 0 0 0 0 0 0 0 0 0 0 0 0 0 0 0 0 0 0 0 0 0
13 2 2 0 0 0 0 0 0 0 0 0 0 0 0 0 0 0 0 0 0 0 0 0 0 0 0 0 0 0 0 0 0 0 0 0 0 0 0 0 0 0 0 0 0 0 0
68 20 6 2 1 0 0 0 0 0 0 0 0 0 0 0 0 0 0 0 0 0 0 0 0 0 0 0 0 0 0 0 0 0 0 0 0 0 0 0 0 0 0 0 0 0 0
45 83 50 26 1 0 0 0 0 0 0 0 0 0 0 0 0 0 0 0 0 0 0 0 0 0 0 0 0 0 0 0 0 0 0 0 0 0 0 0 0 0 0 0 0 0 0
34 73 117 95 14 3 0 0 0 0 0 0 0 0 0 0 0 0 0 0 0 0 0 0 0 0 0 0 0 0 0 0 0 0 0 0 0 0 0 0 0 0 0 0 0 0 0
1 59 97 104 91 18 2 0 0 0 0 0 0 0 0 0 0 0 0 0 0 0 0 0 0 0 0 0 0 0 0 0 0 0 0 0 0 0 0 0 0 0 0 0 0 0 0
2 0 0 20 111 70 27 4 0 0 0 0 0 0 0 0 0 0 0 0 0 0 0 0 0 0 0 0 0 0 0 0 0 0 0 0 0 0 0 0 0 0 0 0 0 0 0
4 4 1 0 0 48 45 17 10 0 0 0 0 0 0 0 0 0 0 0 0 0 0 0 0 0 0 0 0 0 0 0 0 0 0 0 0 0 0 0 0 0 0 0 0 0 0
0 3 2 8 17 5 63 20 28 0 0 0 0 0 0 0 0 0 0 0 0 0 0 0 0 0 0 0 0 0 0 0 0 0 0 0 0 0 0 0 0 0 0 0 0 0 0
11 0 1 5 16 0 99 66 20 7 0 0 0 0 0 0 0 0 0 0 0 0 0 0 0 0 0 0 0 0 0 0 0 0 0 0 0 0 0 0 0 0 0 0 0 0 0
55 27 0 0 7 2 3 114 61 4 0 0 0 0 0 0 0 0 0 0 0 0 0 0 0 0 0 0 0 0 0 0 0 0 0 0 0 0 0 0 0 0 0 0 0 0 0
52 43 42 17 39 10 1 92 84 32 0 0 0 0 0 0 0 0 0 0 0 0 0 0 0 0 0 0 0 0 0 0 0 0 0 0 0 0 0 0 0 0 0 0 0 0 0
CIN
-0 -0 -0 -0 -0 -0 -0 -0 -0 -0 -0 -0 -0 -0 -0 -0 -0 -0 -0 -0 -0 -0 -0 -0 -0 -0 -0 -0 -0 -0 -0 -0 -0 -0 -0 -0 -0 -0 -0 -0 -0 -0 -0 -0 -0 -0 -0
-0 -0 -0 -0 -0 -0 -0 -0 -0 -0 -0 -0 -0 -0 -0 -0 -0 -0 -0 -0 -0 -0 -0 -0 -0 -0 -0 -0 -0 -0 -0 -0 -0 -0 -0 -0 -0 -0 -0 -0 -0 -0 -0 -0 -0 -0 -0
-0 -0 -0 -0 -0 -0 -0 -0 -0 -0 -0 -0 -0 -0 -0 -0 -0 -0 -0 -0 -0 -0 -0 -0 -0 -0 -0 -0 -0 -0 -0 -0 -0 -0 -0 -0 -0 -0 -0 -0 -0 -0 -0 -0 -0 -0 -0
-0 -0 -0 -0 -0 -0 -0 -0 -0 -0 -0 -0 -0 -0 -0 -0 -0 -0 -0 -0 -0 -0 -0 -0 -0 -0 -0 -0 -0 -0 -0 -0 -0 -0 -0 -0 -0 -0 -0 -0 -0 -0 -0 -0 -0 -0 -0
-0 -0 -0 -0 -0 -0 -0 -0 -0 -0 -0 -0 -0 -0 -0 -0 -0 -0 -0 -0 -0 -0 -0 -0 -0 -0 -0 -0 -0 -0 -0 -0 -0 -0 -0 -0 -0 -0 -0 -0 -0 -0 -0 -0 -0 -0 -0
-0 -0 -0 -0 -0 -0 -0 -0 -0 -0 -0 -0 -0 -0 -0 -0 -0 -0 -0 -0 -0 -0 -0 -0 -0 -0 -0 -0 -0 -0 -0 -0 -0 -0 -0 -0 -0 -0 -0 -0 -0 -0 -0 -0 -0 -0 -0
-0 -0 -0 -0 -0 -0 -0 -0 -0 -0 -0 -0 -0 -0 -0 -0 -0 -0 -0 -0 -0 -0 -0 -0 -0 -0 -0 -0 -0 -0 -0 -0 -0 -0 -0 -0 -0 -0 -0 -0 -0 -0 -0 -0 -0 -0 -0
-0 -0 -0 -0 -0 -0 -0 -0 -0 -0 -0 -0 -0 -0 -0 -0 -0 -0 -0 -0 -0 -0 -0 -0 -0 -0 -0 -0 -0 -0 -0 -0 -0 -0 -0 -0 -0 -0 -0 -0 -0 -0 -0 -0 -0 -0 -0
-0 -0 -0 -0 -0 -0 -0 -0 -0 -0 -0 -0 -0 -0 -0 -0 -0 -0 -0 -0 -0 -0 -0 -0 -0 -0 -0 -0 -0 -0 -0 -0 -0 -0 -0 -0 -0 -0 -0 -0 -0 -0 -0 -0 -0 -0 -0
-0 -0 -0 -0 -0 -0 -0 -0 -0 -0 -0 -0 -0 -0 -0 -0 -0 -0 -0 -0 -0 -0 -0 -0 -0 -0 -0 -0 -0 -0 -0 -0 -0 -0 -0 -0 -0 -0 -0 -0 -0 -0 -0 -5 -13 -3 -0
-0 -0 -0 -0 -0 -0 -0 -0 -0 -0 -0 -0 -0 -0 -0 -0 -0 -0 -0 -0 -0 -0 -0 -0 -0 -0 -0 -0 -0 -0 -0 -0 -0 -0 -0 -0 -0 -0 -0 -0 -0 -0 -0 -0 -0 -0 -3
-0 -0 -0 -0 -0 -0 -0 -0 -0 -0 -0 -0 -0 -0 -0 -0 -0 -0 -0 -0 -0 -0 -0 -0 -0 -0 -0 -0 -0 -0 -0 -0 -0 -0 -0 -0 -0 -0 -0 -0 -0 -0 -0 -0 -0 -0 -0
-0 -0 -0 -0 -0 -0 -0 -0 -0 -0 -0 -0 -0 -0 -0 -0 -0 -0 -0 -0 -0 -0 -0 -0 -0 -0 -0 -0 -0 -0 -0 -0 -0 -0 -0 -0 -0 -0 -0 -0 -0 -0 -0 -0 -0 -0 -0
-0 -0 -0 -0 -0 -0 -0 -0 -0 -0 -0 -0 -0 -0 -0 -0 -0 -0 -0 -0 -0 -0 -0 -0 -0 -0 -0 -0 -0 -0 -0 -0 -0 -0 -0 -0 -0 -0 -0 -0 -0 -0 -0 -0 -0 -0 -0
-0 -0 -0 -0 -0 -0 -0 -0 -0 -0 -0 -0 -0 -0 -0 -0 -0 -0 -0 -0 -0 -0 -0 -0 -0 -0 -0 -0 -0 -0 -0 -0 -0 -0 -0 -0 -0 -0 -0 -0 -0 -0 -0 -0 -0 -0 -0
-0 -0 -0 -0 -0 -0 -0 -0 -0 -0 -0 -0 -0 -0 -0 -0 -0 -0 -0 -0 -0 -0 -0 -0 -0 -0 -0 -0 -0 -0 -0 -0 -0 -0 -0 -0 -0 -0 -0 -0 -0 -0 -0 -1 -0 -0 -0
-0 -0 -0 -0 -0 -0 -0 -0 -0 -0 -0 -0 -0 -0 -0 -0 -0 -0 -0 -0 -0 -0 -0 -0 -0 -0 -0 -0 -0 -0 -0 -0 -0 -0 -0 -0 -0 -0 -0 -0 -0 -0 -0 -0 -0 -0 -0
-0 -0 -0 -0 -0 -0 -0 -0 -0 -0 -0 -0 -0 -0 -0 -0 -0 -0 -0 -0 -0 -0 -0 -0 -0 -0 -0 -0 -0 -0 -0 -0 -0 -0 -0 -0 -0 -0 -0 -0 -0 -0 -0 -0 -0 -0 -0
-21 -0 -0 -0 -0 -0 -0 -0 -0 -0 -0 -0 -0 -0 -0 -0 -0 -0 -0 -0 -0 -0 -0 -0 -0 -0 -0 -0 -0 -0 -0 -0 -0 -0 -0 -0 -0 -0 -0 -0 -0 -0 -0 -0 -0 -0 -0
-1 -41 -6 -0 -0 -0 -0 -0 -0 -0 -0 -0 -0 -0 -0 -0 -0 -0 -0 -0 -0 -0 -0 -0 -0 -0 -0 -0 -0 -0 -0 -0 -0 -0 -0 -0 -0 -0 -0 -0 -0 -0 -0 -0 -0 -0 -0
-0 -0 -9 -53 -2 -0 -0 -0 -0 -0 -0 -0 -0 -0 -0 -0 -0 -0 -0 -0 -0 -0 -0 -0 -0 -0 -0 -0 -0 -0 -0 -0 -0 -0 -0 -0 -0 -0 -0 -0 -0 -0 -0 -0 -0 -0 -0
-0 -0 -27 -1 -32 -105 -0 -0 -0 -0 -0 -0 -0 -0 -0 -0 -0 -0 -0 -0 -0 -0 -0 -0 -0 -0 -0 -0 -0 -0 -0 -0 -0 -0 -0 -0 -0 -0 -0 -0 -0 -0 -0 -0 -0 -0 -0
-0 -2 -0 -24 -12 -17 -14 -6 -0 -0 -0 -0 -0 -0 -0 -0 -0 -0 -0 -0 -0 -0 -0 -0 -0 -0 -0 -0 -0 -0 -0 -0 -0 -0 -0 -0 -0 -0 -0 -0 -0 -0 -0 -0 -0 -0 -0
-0 -0 -0 -9 -0 -10 -31 -18 -0 -0 -0 -0 -0 -0 -0 -0 -0 -0 -0 -0 -0 -0 -0 -0 -0 -0 -0 -0 -0 -0 -0 -0 -0 -0 -0 -0 -0 -0 -0 -0 -0 -0 -0 -0 -0 -0 -0
-0 -0 -0 -0 -0 -0 -19 -17 -18 -0 -0 -0 -0 -0 -0 -0 -0 -0 -0 -0 -0 -0 -0 -0 -0 -0 -0 -0 -0 -0 -0 -0 -0 -0 -0 -0 -0 -0 -0 -0 -0 -0 -0 -0 -0 -0 -0
-0 -0 -0 -0 -7 -0 -0 -23 -18 -23 -0 -0 -0 -0 -0 -0 -0 -0 -0 -0 -0 -0 -0 -0 -0 -0 -0 -0 -0 -0 -0 -0 -0 -0 -0 -0 -0 -0 -0 -0 -0 -0 -0 -0 -0 -0 -0
-6 -0 -0 -0 -0 -0 -0 -3 -19 -33 -0 -0 -0 -0 -0 -0 -0 -0 -0 -0 -0 -0 -0 -0 -0 -0 -0 -0 -0 -0 -0 -0 -0 -0 -0 -0 -0 -0 -0 -0 -0 -0 -0 -0 -0 -0 -0
-0 -0 -0 -0 -8 -0 -0 -0 -4 -24 -0 -0 -0 -0 -0 -0 -0 -0 -0 -0 -0 -0 -0 -0 -0 -0 -0 -0 -0 -0 -0 -0 -0 -0 -0 -0 -0 -0 -0 -0 -0 -0 -0 -0 -0 -0 -0
-0 -0 -0 -0 -0 -0 -0 -0 -0 -16 -0 -0 -0 -0 -0 -0 -0 -0 -0 -0 -0 -0 -0 -0 -0 -0 -0 -0 -0 -0 -0 -0 -0 -0 -0 -0 -0 -0 -0 -0 -0 -0 -0 -0 -0 -0 -0
Wind_Speed
14 14 14 14 14 14 14 15 15 15 15 13 11 10 5 4 4 3 2 1 7 14 22 23 23 23 20 25 25 20 20 20 21 25 26 24 24 22 21 19 21 17 23 29 32 33 32
14 14 14 14 14 14 14 14 14 14 14 14 15 11 2 3 2 4 1 4 8 12 17 19 20 20 21 25 21 20 20 21 20 24 25 23 22 21 20 19 18 18 28 32 30 33 32
16 15 15 15 15 15 14 14 14 15 17 18 15 2 7 13 12 6 1 3 5 9 14 17 19 19 22 22 20 20 19 21 20 20 23 21 20 22 21 21 21 26 27 27 21 27 29
17 17 16 15 15 15 14 15 15 16 18 20 26 24 23 22 18 7 2 2 4 11 14 16 18 18 19 18 17 19 19 21 19 17 16 17 19 20 19 21 25 23 22 30 31 30 26
19 18 17 16 15 15 15 15 16 17 20 23 27 22 19 20 17 8 8 2 16 17 17 16 18 18 20 18 20 19 17 21 20 20 20 19 20 21 22 25 27 23 30 31 28 27 31
21 19 18 17 16 16 16 17 18 19 21 22 14 14 20 22 15 5 8 18 19 18 18 16 17 17 20 19 18 17 17 17 19 21 24 24 22 18 14 16 15 23 30 27 33 28 33
23 21 19 18 17 17 17 18 19 20 21 22 23 18 18 20 6 7 23 17 18 16 18 17 17 18 18 16 14 17 17 18 19 22 26 23 16 16 12 7 3 3 4 4 6 18 32
23 22 21 21 21 19 18 19 20 21 22 23 24 24 21 21 21 28 25 23 20 16 16 16 15 15 15 17 18 19 18 18 19 21 24 22 14 17 14 13 8 9 4 7 5 9 10
23 23 22 22 23 21 20 20 21 22 23 24 25 26 25 23 18 26 30 25 18 17 18 16 15 16 18 18 16 20 18 19 17 21 23 20 14 15 18 10 11 9 6 11 9 10 16
23 23 24 23 22 21 21 21 22 23 24 25 26 27 27 24 21 22 25 21 18 17 20 18 17 17 19 18 17 19 18 19 19 19 21 19 20 17 16 16 16 15 16 13 13 16 18
23 23 24 23 23 21 22 22 23 24 24 25 26 27 27 25 21 24 21 19 19 18 22 18 17 16 17 16 17 24 22 19 21 19 21 18 19 22 23 22 20 13 15 20 22 21 22
24 24 22 23 22 22 21 23 24 25 25 26 26 27 26 19 21 21 20 18 19 22 24 19 17 22 20 18 18 19 25 21 18 21 20 16 17 18 21 18 19 16 21 22 24 27 31
28 26 25 23 22 21 21 23 24 25 26 26 27 27 22 17 19 21 20 20 23 26 23 22 20 22 19 18 19 21 21 30 26 25 25 19 18 20 20 21 22 35 33 28 32 35 36
33 30 28 26 24 22 22 22 23 25 26 27 28 26 17 16 18 21 19 20 24 22 23 22 24 23 18 23 19 21 19 20 24 22 21 23 21 22 26 26 21 26 30 29 26 30 26
38 35 32 29 27 25 24 23 23 24 26 26 27 20 18 16 17 19 18 20 19 20 22 25 26 24 21 21 21 22 19 17 19 23 25 23 18 15 16 21 24 22 29 23 22 19 23
40 39 36 33 30 28 26 24 23 23 24 24 23 22 19 16 17 18 18 17 16 18 21 23 25 24 25 23 24 23 18 17 17 18 19 19 17 16 16 20 23 23 22 25 26 26 25
42 40 39 36 33 30 28 25 23 21 21 21 21 21 17 16 18 18 18 16 15 15 18 21 23 24 24 24 24 19 16 17 17 17 16 19 17 15 14 19 19 22 26 22 23 26 23
45 43 40 38 35 32 29 27 23 21 18 19 19 22 17 17 18 18 16 15 14 14 16 17 20 21 22 22 23 20 16 15 19 17 14 16 15 16 11 7 14 18 20 23 20 21 23
48 45 42 40 37 33 30 27 24 20 16 17 22 21 18 17 20 18 17 16 14 13 15 17 19 19 20 21 22 20 19 13 23 19 14 14 15 19 20 17 18 16 16 16 14 18 20
49 46 45 42 39 35 31 28 24 20 17 19 21 25 21 19 19 17 16 16 14 12 14 14 17 18 21 21 18 19 20 18 20 18 17 14 13 12 13 10 9 8 4 14 17 18 15
50 48 45 43 40 37 34 30 26 21 17 19 22 25 21 22 19 16 13 14 13 14 14 11 18 18 21 23 23 20 19 18 18 14 14 15 11 10 4 1 3 3 3 9 17 15 16
54 47 45 43 40 40 36 32 29 25 19 25 25 24 23 23 20 15 14 15 14 16 13 15 16 15 17 20 19 22 20 19 12 12 13 17 12 12 7 12 12 3 8 11 13 15 16
36 45 49 45 42 39 37 36 31 26 22 28 25 24 24 24 22 19 19 16 14 12 14 16 13 15 18 15 14 12 11 10 5 7 12 13 13 14 12 11 11 12 10 11 13 15 15
35 34 38 44 45 41 38 36 34 31 30 28 25 24 28 30 24 22 20 16 15 13 16 16 13 18 17 19 22 22 15 7 4 2 1 8 10 12 11 14 11 12 13 12 12 13 13
45 40 36 39 46 48 40 38 36 34 32 32 25 27 28 33 27 26 22 21 18 15 15 17 16 17 16 22 26 28 24 20 18 15 6 4 8 11 12 12 8 8 9 10 10 9 11
47 47 43 42 43 47 43 39 39 36 34 34 34 26 28 31 34 24 23 19 18 18 18 17 19 16 18 22 23 24 23 22 19 17 15 6 9 10 13 12 12 11 11 13 14 7 9
45 42 46 42 39 43 44 43 39 37 35 33 32 29 30 34 30 24 25 23 19 19 20 18 17 17 18 21 22 21 22 19 19 16 14 11 11 7 7 11 10 3 10 12 10 13 9
44 44 46 44 48 43 47 44 42 39 37 35 36 29 30 33 30 26 26 23 21 20 22 18 19 20 19 21 20 19 19 19 21 18 16 9 11 13 11 11 11 7 9 8 12 12 10
44 46 45 43 43 44 44 44 39 38 36 35 36 32 28 30 29 26 24 22 21 17 18 18 21 18 15 18 19 18 20 19 22 24 18 18 11 14 9 12 12 9 9 12 10 11 11
Wind_Direction
260 264 269 265 265 259 268 278 281 278 275 261 252 249 220 84 72 73 226 77 46 33 16 18 21 23 38 29 29 40 39 33 26 7 358 354 351 354 349 345 337 331 309 295 291 288 287
260 254 259 254 252 270 272 275 280 277 273 274 279 264 171 80 232 243 224 56 47 38 30 28 29 33 36 29 43 43 41 35 34 15 4 8 1 2 356 349 347 342 316 299 299 292 290
246 248 250 259 269 271 274 279 282 290 296 301 285 163 260 275 270 257 242 57 51 46 41 38 37 37 38 37 45 43 43 40 40 32 17 17 14 2 359 352 345 328 323 312 312 309 297
245 249 256 268 268 268 277 283 289 295 302 309 334 318 308 300 287 266 266 255 71 57 54 51 42 43 43 48 49 42 46 44 49 50 42 31 20 10 6 352 343 340 331 311 306 300 303
253 256 260 264 267 275 281 282 292 297 315 326 339 311 300 299 290 274 268 84 44 48 54 57 46 45 40 46 47 47 53 45 46 46 36 32 28 17 4 350 343 341 321 318 319 312 298
248 258 264 269 273 278 281 294 302 305 314 318 287 292 305 307 292 284 29 52 53 59 54 60 54 50 41 41 45 49 49 46 44 38 35 31 32 43 49 31 10 353 333 330 315 317 304
249 253 264 271 277 282 295 303 308 313 315 318 318 302 304 307 286 65 36 53 44 50 51 56 57 54 43 43 55 47 45 41 41 36 29 32 53 46 39 43 55 1 356 309 279 343 312
259 261 266 261 261 277 299 307 314 315 316 320 323 317 310 312 49 29 41 38 47 56 49 74 72 63 52 42 40 39 43 43 39 33 31 36 54 41 41 48 52 34 331 283 313 6 339
266 268 272 270 260 272 289 303 310 315 315 320 320 320 317 313 56 34 29 35 54 64 55 63 69 58 42 38 44 35 43 40 42 36 29 37 45 41 37 43 34 18 5 4 308 305 347
269 272 271 275 279 284 288 295 301 306 312 319 322 323 323 317 35 42 34 51 59 74 41 47 51 49 36 35 45 40 44 41 44 37 34 44 39 43 44 40 41 23 25 10 358 2 1
268 272 274 279 281 289 291 293 295 299 306 317 319 326 328 1 27 23 38 54 64 67 21 46 48 51 32 45 40 24 38 41 38 39 40 42 42 33 32 33 34 24 19 23 27 32 27
265 269 274 278 283 288 295 294 294 298 304 311 316 319 323 17 16 27 37 52 57 25 13 31 41 24 31 39 42 38 30 43 45 40 43 48 47 47 36 30 33 31 33 45 44 44 36
261 264 268 274 279 286 292 296 298 300 304 308 310 307 338 17 14 12 24 35 14 17 17 18 21 22 34 37 34 32 35 25 35 33 34 42 46 38 41 32 40 22 29 40 34 38 38
258 260 264 268 273 280 287 295 300 301 304 306 304 314 355 7 8 358 17 19 5 19 16 22 16 19 33 24 32 30 39 37 38 41 39 37 42 40 25 30 35 36 33 34 42 42 49
256 257 260 263 268 274 280 288 295 298 302 307 309 327 339 351 5 3 5 2 10 15 15 9 10 17 25 25 26 27 37 44 44 39 34 36 43 45 44 37 38 43 37 51 52 57 56
254 255 257 260 263 268 274 282 289 296 303 309 313 317 325 344 355 355 353 357 6 13 11 12 3 12 11 17 15 18 34 42 43 43 43 39 37 51 45 49 44 47 54 43 42 46 53
253 254 255 257 259 263 268 274 282 292 302 308 309 310 322 333 340 340 339 347 0 14 17 7 4 1 7 15 11 21 31 36 42 39 42 36 42 44 52 56 49 49 44 56 56 46 55
251 252 253 254 256 259 262 268 274 282 294 302 302 297 314 325 321 331 333 342 354 6 9 12 9 3 7 13 12 16 26 28 27 28 34 41 40 34 52 71 62 54 55 52 59 51 52
248 249 250 252 252 254 257 260 265 271 278 292 290 294 306 312 307 314 325 332 342 355 353 360 360 6 9 8 11 8 12 33 1 19 32 41 42 31 41 58 59 62 56 53 68 62 61
247 246 248 248 250 251 252 254 257 260 265 281 284 284 293 297 303 308 313 320 328 345 349 358 358 4 1 2 7 7 1 9 4 14 26 40 46 44 40 49 58 66 51 59 62 60 69
246 245 245 245 246 248 249 249 249 250 253 269 273 278 285 290 290 294 305 319 321 330 338 353 344 346 353 355 355 1 6 2 1 25 33 35 36 38 54 214 134 112 95 77 56 66 67
243 244 243 244 243 244 245 244 244 243 243 259 267 273 277 282 288 282 290 299 305 319 330 333 332 346 350 353 353 350 358 4 17 24 30 19 29 28 34 49 52 117 96 81 74 55 53
266 245 246 244 242 241 240 241 237 231 233 258 262 275 274 275 274 274 279 288 299 313 322 324 335 344 341 350 356 355 356 358 3 1 360 10 21 25 32 42 40 48 77 81 79 66 63
267 255 255 249 242 240 238 236 232 226 227 254 261 264 265 268 266 268 282 277 286 293 308 318 333 333 347 352 347 346 354 357 353 276 351 15 26 25 20 21 32 41 45 64 70 72 69
260 256 259 257 250 243 235 235 231 226 222 245 261 257 261 266 267 269 270 280 287 295 304 311 320 331 348 338 334 334 343 354 358 7 35 77 27 20 17 15 24 36 44 45 60 77 68
255 255 258 256 256 250 235 231 232 228 224 239 249 259 262 263 264 271 267 270 276 285 297 307 319 333 335 326 326 327 337 344 350 357 4 40 14 12 10 8 12 34 29 19 17 57 69
257 256 254 255 258 253 235 233 229 228 225 233 249 249 257 260 268 263 264 264 274 283 294 303 310 318 326 318 316 322 328 337 340 350 353 353 345 332 346 352 355 61 6 13 15 18 46
258 253 253 257 251 254 246 231 229 227 227 230 243 246 249 259 265 264 266 271 275 274 280 290 301 307 311 306 310 314 320 326 328 340 343 345 345 338 341 340 338 17 8 358 356 2 11
257 253 251 251 254 252 249 234 223 223 224 225 244 242 248 257 267 268 271 276 276 276 273 276 291 304 306 308 306 312 313 319 319 324 335 330 329 333 328 337 344 358 353 341 351 349 350